Regional Weather Roundup
Issued by NWS Sterling, VA

Home | Current Version | Previous Version | Graphics & Text | Print | Product List | Glossary On
Versions: 1 2 3 4 5 6 7 8 9 10 11 12 13 14 15 16 17 18 19 20 21 22 23 24 25 26 27 28 29 30 31 32 33 34 35 36 37 38 39 40 41 42 43 44 45 46 47 48 49 50
000
ASUS41 KLWX 262310
RWRLWX

REGIONAL WEATHER ROUNDUP
NATIONAL WEATHER SERVICE BALTIMORE MD/WASHINGTON DC
700 PM EDT TUE JUL 26 2016

Note: "FAIR" indicates few or no clouds below 12,000 feet
with no significant weather and/or obstructions to visibility.
 TC=TEMPERATURE CELSIUS

 * =Non NWS site. Station does not report precipitation (e.g. rain,
    snow, etc.), thunder, or fog.

DCZ001-MDZ009-015-VAZ040>042-051-053>054-270000-
WASHINGTON METRO

CITY           SKY/WX    TMP DP  RH WIND       PRES   REMARKS
WASHINGTON NAT PTSUNNY   92  65  40 NW9       29.91S HX  94
DULLES         PTSUNNY   89  66  46 NW7       29.92S HX  91
ANDREWS AFB    SUNNY     91  66  43 NW8       29.91R HX  94
FT BELVOIR     FAIR      91  68  46 VRB2      29.91R HX  95
QUANTICO       FAIR      89  77  67 NW6       29.92R HX 101
COLLEGE PARK*  FAIR      88  70  55 CALM      29.91R HX  92
LEESBURG*      FAIR      90  73  58 CALM      29.94R HX  98
MANASSAS*      MOSUNNY   90  70  51 N6        29.92R HX  95
GAITHERSBURG*  CLOUDY    84  70  61 CALM      29.96S

$$

MDZ006>007-011-014-270000-
BALTIMORE METRO

CITY           SKY/WX    TMP DP  RH WIND       PRES   REMARKS
BWI AIRPORT    PTSUNNY   90  65  43 VRB6      29.90S HX  92
MD SCIENCE CTR   N/A     91  66  43 MISG      29.90S HX  93
MARTIN STATE   MOSUNNY   88  77  70 SE5       29.90F HX 100
ANNAPOLIS      MOSUNNY   90  73  57 NW3       29.89S HX  98
FORT MEADE*    PTSUNNY   81  73  78 CALM      29.93S

$$

MDZ012-015-019>023-270000-
MARYLAND EASTERN SHORE

CITY           SKY/WX    TMP DP  RH WIND       PRES   REMARKS
OCEAN CITY     PTSUNNY   84  71  65 S3        29.92R
SALISBURY      SUNNY     83  74  74 S3        29.92R
BAY BRIDGE AP* MOSUNNY   90  75  62 SW3       29.90S HX 100
CAMBRIDGE*     SUNNY     90  73  58 CALM      29.90R HX  98
EASTON*        MOSUNNY   90  77  66 N3        29.94S HX 102

$$

MDZ017>025-270000-
SOUTHERN MARYLAND

CITY           SKY/WX    TMP DP  RH WIND       PRES   REMARKS
PATUXENT RIVER PTSUNNY   87  76  69 S5        29.91R HX  97
ST INIGOES     SUNNY     87  75  67 S8        29.91R HX  96
LEONARDTOWN*     N/A     86  75  70 MISG        N/A  HX  95

$$

MDZ003>005-270000-
NORTH CENTRAL MARYLAND

CITY           SKY/WX    TMP DP  RH WIND       PRES   REMARKS
FREDERICK*     SUNNY     90  70  51 W5        29.94S HX  95
HAGERSTOWN APT CLOUDY    90  67  46 SW6       29.92S HX  93

$$

MDZ501>502-270000-
WESTERN MARYLAND

CITY           SKY/WX    TMP DP  RH WIND       PRES   REMARKS
OAKLAND*       CLOUDY    73  66  78 CALM      30.11R
CUMBERLAND*    NOT AVBL

$$

VAZ025>031-270000-
SHENANDOAH VALLEY

CITY           SKY/WX    TMP DP  RH WIND       PRES   REMARKS
WINCHESTER*    FAIR      86  70  58 W5        29.95R HX  90
FRONT ROYAL*   CLOUDY    86  70  58 NW3       29.95R HX  90
LURAY*         LGT RAIN  77  77 100 SE5       29.98R
NEW MARKET*    MOCLDY   N/A N/A N/A CALM      29.97S
STAUNTON*      LGT RAIN  75  73  92 CALM      30.02F
WAYNESBORO*    CLOUDY    75  71  87 CALM      30.02S

$$

WVZ021-048>050-054>055-270000-
EASTERN WEST VIRGINIA PANHANDLE

CITY           SKY/WX    TMP DP  RH WIND       PRES   REMARKS
MARTINSBURG    FAIR      89  66  46 W7        29.92S HX  91
PETERSBURG*    FAIR      84  74  72 CALM      29.98R HX  92

$$

VAZ036>039-050-270000-
CENTRAL FOOTHILLS

CITY           SKY/WX    TMP DP  RH WIND       PRES   REMARKS
CHARLOTTESVILL LGT RAIN  88  74  63 CALM      29.94S HX  96
CULPEPER*      TSTM      80  78  91 W6        29.96R
ORANGE*          N/A     88  77  70 CALM      29.95R HX 100
GORDONSVILLE*  CLOUDY    85  79  82 CALM      29.93R HX  99
WARRENTON*     FAIR      88  68  51 NE3       29.93R THUNDER HX  91

$$

VAZ055>057-270000-
NORTH AND CENTRAL PIEDMONT

CITY           SKY/WX    TMP DP  RH WIND       PRES   REMARKS
FREDERICKSBRG*   N/A     92  72  51 CALM      29.91R HX  99
STAFFORD*      FAIR      85  76  73 CALM      29.96R HX  94

$$

NCZ024-NYZ072-PAZ021-071-VAZ022-071-270000-
OTHER REGIONAL OBSERVATIONS

CITY           SKY/WX    TMP DP  RH WIND       PRES   REMARKS
NEW YORK CITY  SUNNY     88  61  40 NW7       29.89S
PHILADELPHIA   PTSUNNY   90  67  46 W10       29.89S HX  93
PITTSBURGH     CLOUDY    84  57  39 N10       29.99S
ROANOKE        FAIR      93  70  46 W7        29.97S HX  99
RICHMOND       PTSUNNY   89  76  65 S8        29.91R THUNDER HX 100
RALEIGH        CLOUDY    89  76  65 CALM      29.93R HX 100

$$

ANZ530>537-270000-
MARINE OBSERVATIONS

STATION/POSITION TIME  TEMP    WIND        PRES
                       AIR SEA DIR/SP/G
                 (UTC) (F)     (DEG/KT/KT) (MB)
THOMAS PT LIGHT  2300   89 85  320/  2/  2 1013.9S
BALT KEY BRIDGE  2224   89     280/  7/  8 1012.2
COVE POINT       2224   87     200/  6/  6 1013.0
LEWISETTA        2224   87 89  180/  6/  7 1012.3
SOLOMONS ISLAND  2224   87 85  210/  5/  6   N/A
PINEY POINT      2230          170/  8/  9   N/A

$$




USA.gov is the U.S. government's official web portal to all federal, state and local government web resources and services.